TimeEST,TemperatureF,Dew PointF,Humidity,Sea Level PressureIn,VisibilityMPH,Wind Direction,Wind SpeedMPH,Gust SpeedMPH,PrecipitationIn,Events,Conditions,WindDirDegrees,DateUTC
12:54 AM,37.0,28.0,70,29.83,10.0,NW,10.4,-,N/A,,Clear,310,2012-11-04 04:54:00
1:54 AM,37.0,28.0,70,29.82,10.0,WNW,12.7,-,N/A,,Clear,290,2012-11-04 05:54:00
1:54 AM,36.0,28.0,73,29.82,10.0,WNW,19.6,-,N/A,,Clear,290,2012-11-04 06:54:00
2:54 AM,36.0,28.9,76,29.82,10.0,WNW,17.3,25.3,N/A,,Clear,290,2012-11-04 07:54:00
3:54 AM,36.0,28.9,76,29.83,10.0,WNW,19.6,-,N/A,,Clear,290,2012-11-04 08:54:00
4:54 AM,36.0,28.9,76,29.84,10.0,WNW,15.0,24.2,N/A,,Clear,300,2012-11-04 09:54:00
5:54 AM,36.0,28.9,76,29.85,10.0,WNW,18.4,24.2,N/A,,Clear,300,2012-11-04 10:54:00
6:54 AM,36.0,28.9,76,29.87,10.0,NW,16.1,25.3,N/A,,Clear,310,2012-11-04 11:54:00
7:54 AM,39.0,30.0,70,29.89,10.0,NW,15.0,21.9,N/A,,Clear,310,2012-11-04 12:54:00
8:54 AM,41.0,30.0,65,29.89,10.0,NW,11.5,23.0,N/A,,Clear,320,2012-11-04 13:54:00
9:54 AM,44.1,30.9,60,29.90,10.0,NW,12.7,-,N/A,,Clear,310,2012-11-04 14:54:00
10:54 AM,46.0,30.9,56,29.90,10.0,NW,12.7,-,N/A,,Clear,320,2012-11-04 15:54:00
11:54 AM,48.0,32.0,54,29.88,10.0,NW,12.7,16.1,N/A,,Mostly Cloudy,320,2012-11-04 16:54:00
12:54 PM,48.0,30.9,52,29.87,10.0,NNW,10.4,-,N/A,,Partly Cloudy,340,2012-11-04 17:54:00
1:54 PM,48.0,30.9,52,29.88,10.0,NW,10.4,-,N/A,,Clear,320,2012-11-04 18:54:00
2:54 PM,46.9,30.9,54,29.88,10.0,NW,11.5,-,N/A,,Mostly Cloudy,310,2012-11-04 19:54:00
3:54 PM,43.0,30.0,60,29.90,10.0,NW,11.5,-,N/A,,Mostly Cloudy,310,2012-11-04 20:54:00
4:54 PM,39.9,28.9,65,29.92,10.0,North,9.2,-,N/A,,Clear,350,2012-11-04 21:54:00
5:35 PM,39.2,28.4,65,29.90,10.0,North,8.1,-,N/A,,Mostly Cloudy,360,2012-11-04 22:35:00
5:54 PM,39.0,28.0,65,29.94,10.0,NW,8.1,-,N/A,,Overcast,320,2012-11-04 22:54:00
6:54 PM,39.9,28.0,63,29.93,10.0,NNW,6.9,-,N/A,,Overcast,330,2012-11-04 23:54:00
7:54 PM,39.9,28.0,63,29.94,10.0,NNW,11.5,-,N/A,,Overcast,330,2012-11-05 00:54:00
8:54 PM,39.0,27.0,62,29.95,10.0,NW,4.6,-,N/A,,Overcast,310,2012-11-05 01:54:00
9:54 PM,39.0,27.0,62,29.94,10.0,NNW,8.1,-,N/A,,Overcast,330,2012-11-05 02:54:00
10:50 PM,39.2,26.6,61,29.91,10.0,NNW,9.2,-,N/A,,Overcast,330,2012-11-05 03:50:00
10:54 PM,39.0,27.0,62,29.93,10.0,NNW,8.1,-,N/A,,Overcast,340,2012-11-05 03:54:00